DW8508 Weather Reports


time (UTC)temp
F
wind
direction
speed
knots
gust
knots
rain 1hr
in
rain 24hr
in
rain mn
in
humidity
%
barometer
mb
20260504081507 -90 294 0.0 0.0 0.00 0.00 0.00 1016.9
20260504050113 0 0.0 0.0 0.00 0.00 0.00 1015.9
20260504044555 0 0.0 0.0 0.00 0.00 0.00 1015.9
20260504043039 0 0.0 0.0 0.00 0.00 0.00 1015.7
20260504041532 0 0.0 0.0 0.00 0.00 0.00 1015.6
20260504040029 0 0.0 0.0 0.00 0.00 0.00 1015.7
20260504034523 0 0.0 0.0 0.00 0.00 0.00 1015.6
20260504033020 0 0.0 0.0 0.00 0.00 0.00 1015.6
20260504031516 0 0.0 0.0 0.00 0.00 0.00 1015.5
20260504030010 0 0.0 0.0 0.00 0.00 0.00 1015.3
20260504024509 0 0.0 0.0 0.00 0.00 0.00 1015.3
20260504023050 0 0.0 0.0 0.00 0.00 0.00 1015.3
20260504021545 0 0.0 0.0 0.00 0.00 0.00 1015.3
20260504020041 0 0.0 0.0 0.00 0.00 0.00 1015.1
20260504014539 0 0.0 0.0 0.00 0.00 0.00 1015.1
20260504013037 0 0.0 0.0 0.00 0.00 0.00 1015.0
20260504011528 0 0.0 0.0 0.00 0.00 0.00 1014.9
20260504010023 0 0.0 0.0 0.00 0.00 0.00 1014.9
20260504004519 0 0.0 0.0 0.00 0.00 0.00 1014.7
20260504001554 0 0.0 0.0 0.00 0.00 0.00 1014.8
20260504000118 0 0.0 0.0 0.00 0.00 0.00 1014.8
20260503234544 0 0.0 0.0 0.00 0.00 0.00 1014.9
20260503233042 0 0.0 0.0 0.00 0.00 0.00 1014.8
20260503231537 0 0.0 0.0 0.00 0.00 0.00 1014.8
20260503230031 -90 9 0.0 0.0 0.00 0.00 0.00 1014.9
20260503224530 -90 326 0.0 0.0 0.00 0.00 0.00 1014.9
20260503223006 -90 327 0.0 0.0 0.00 0.00 0.00 1015.0
20260503221501 -90 355 0.0 0.0 0.00 0.00 0.00 1014.9
20260503220040 -90 34 0.0 0.0 0.00 0.00 0.00 1015.1
20260503214536 -90 346 0.0 0.0 0.00 0.00 0.00 1015.2
20260503213015 -90 360 0.0 0.0 0.00 0.00 0.00 1015.3
20260503211512 -90 19 0.0 0.0 0.00 0.00 0.00 1015.4
20260503210053 -90 360 0.0 0.0 0.00 0.00 0.00 1015.6
20260503204548 -90 355 0.0 0.0 0.00 0.00 0.00 1015.5
20260503203045 -90 349 0.0 0.0 0.00 0.00 0.00 1015.7
20260503201540 -90 351 0.0 0.0 0.00 0.00 0.00 1015.7
20260503200035 -90 23 0.0 0.0 0.00 0.00 0.00 1015.7
20260503194531 -90 5 0.0 0.0 0.00 0.00 0.00 1015.7
20260503193027 -90 351 0.0 0.0 0.00 0.00 0.00 1015.8
20260503191522 -86 336 0.0 0.0 0.00 0.00 0.00 1015.8
20260503190018 -84 360 0.0 0.0 0.00 0.00 0.00 1015.8
20260503184504 -75 338 0.0 0.0 0.00 0.00 0.00 1016.0
20260503183102 -72 338 0.0 0.0 0.00 0.00 0.00 1016.1
20260503181556 -72 355 0.0 0.0 0.00 0.00 0.00 1016.0
20260503180048 -72 360 0.0 0.0 0.00 0.00 0.00 1015.9
20260503174543 -72 344 0.0 0.0 0.00 0.00 0.00 1016.1
20260503173039 -72 23 0.0 0.0 0.00 0.00 0.00 1016.1
20260503171552 -75 31 0.0 0.0 0.00 0.00 0.00 1016.1